TimeCDT,TemperatureF,Dew PointF,Humidity,Sea Level PressureIn,VisibilityMPH,Wind Direction,Wind SpeedMPH,Gust SpeedMPH,PrecipitationIn,Events,Conditions,WindDirDegrees,DateUTC
12:53 AM,61.0,54.0,78,29.96,10.0,SE,6.9,-,N/A,,Clear,140,2013-10-11 05:53:00
1:53 AM,60.1,55.0,83,29.96,10.0,South,5.8,-,N/A,,Clear,180,2013-10-11 06:53:00
2:53 AM,57.0,54.0,89,29.97,10.0,South,4.6,-,N/A,,Clear,170,2013-10-11 07:53:00
3:53 AM,54.0,53.1,97,29.99,9.0,South,4.6,-,N/A,,Clear,170,2013-10-11 08:53:00
4:53 AM,57.9,55.0,90,29.97,10.0,SSE,5.8,-,N/A,,Clear,150,2013-10-11 09:53:00
5:53 AM,57.0,55.0,93,29.98,10.0,SSE,5.8,-,N/A,,Clear,150,2013-10-11 10:53:00
6:53 AM,57.9,55.0,90,29.99,10.0,SSE,8.1,-,N/A,,Clear,150,2013-10-11 11:53:00
7:53 AM,57.9,55.9,93,30.00,8.0,South,4.6,-,N/A,,Clear,180,2013-10-11 12:53:00
8:53 AM,61.0,57.0,87,29.99,10.0,South,9.2,-,N/A,,Clear,170,2013-10-11 13:53:00
9:53 AM,66.0,59.0,78,29.99,10.0,South,12.7,-,N/A,,Clear,170,2013-10-11 14:53:00
10:53 AM,70.0,59.0,68,29.97,10.0,South,12.7,-,N/A,,Clear,170,2013-10-11 15:53:00
11:53 AM,73.9,59.0,59,29.95,10.0,South,18.4,24.2,N/A,,Partly Cloudy,170,2013-10-11 16:53:00
12:53 PM,75.0,57.0,53,29.91,10.0,South,13.8,25.3,N/A,,Partly Cloudy,170,2013-10-11 17:53:00
1:53 PM,75.9,55.9,50,29.88,10.0,SSE,19.6,26.5,0.00,,Clear,150,2013-10-11 18:53:00
2:53 PM,77.0,55.0,47,29.86,10.0,SE,17.3,26.5,N/A,,Clear,140,2013-10-11 19:53:00
3:53 PM,78.1,53.1,42,29.85,10.0,SSE,12.7,23.0,N/A,,Clear,160,2013-10-11 20:53:00
4:53 PM,77.0,53.1,43,29.85,10.0,SSE,17.3,24.2,N/A,,Clear,160,2013-10-11 21:53:00
5:53 PM,75.0,54.0,48,29.87,10.0,SSE,10.4,-,N/A,,Clear,160,2013-10-11 22:53:00
6:53 PM,71.1,54.0,55,29.87,10.0,SSE,6.9,-,N/A,,Clear,160,2013-10-11 23:53:00
7:53 PM,70.0,54.0,57,29.88,10.0,SSE,9.2,-,N/A,,Mostly Cloudy,150,2013-10-12 00:53:00
8:53 PM,72.0,53.1,51,29.88,10.0,South,11.5,-,N/A,,Overcast,170,2013-10-12 01:53:00
9:53 PM,71.1,53.1,53,29.87,10.0,South,12.7,-,N/A,,Overcast,170,2013-10-12 02:53:00
10:53 PM,70.0,54.0,57,29.88,10.0,South,12.7,-,N/A,,Overcast,180,2013-10-12 03:53:00
11:53 PM,69.1,55.0,61,29.88,10.0,South,10.4,-,N/A,,Overcast,180,2013-10-12 04:53:00